EA1M Weather Reports


Display with metric or nautical units.
time (UTC)temp
F
wind
direction
speed
MPH
gust
MPH
rain 1hr
in
rain 24hr
in
rain mn
in
humidity
%
barometer
mb
20260510143111 63 21 2.0 6.0 0.00 0.57 0.07 68 1009.2
20260510142039 63 146 1.0 8.0 0.00 0.59 0.07 61 1009.2
20260510141144 63 194 4.0 9.0 0.00 0.59 0.07 61 1009.3
20260510140119 63 171 6.0 13.0 0.00 0.59 0.07 61 1009.3
20260510135042 62 148 4.0 11.0 0.00 0.59 0.07 64 1009.1
20260510134107 61 177 5.0 10.0 0.00 0.60 0.07 68 1009.1
20260510133022 60 193 3.0 9.0 0.00 0.60 0.07 69 1009.2
20260510132046 61 247 6.0 13.0 0.00 0.60 0.07 66 1009.2
20260510131117 64 202 9.0 17.0 0.00 0.60 0.07 60 1008.8
20260510130050 63 136 4.0 8.0 0.00 0.60 0.07 63 1008.8
20260510125139 63 142 4.0 9.0 0.00 0.60 0.07 65 1008.9
20260510124118 62 162 3.0 10.0 0.00 0.60 0.07 64 1008.9
20260510123038 61 163 5.0 9.0 0.00 0.60 0.07 66 1009.0
20260510122124 61 148 6.0 11.0 0.00 0.60 0.07 65 1009.0
20260510121023 61 204 6.0 13.0 0.00 0.60 0.07 67 1009.0
20260510120046 60 156 6.0 14.0 0.00 0.60 0.07 68 1009.1
20260510115150 61 156 5.0 9.0 0.00 0.60 0.07 74 1009.1
20260510114030 62 28 0.0 2.0 0.00 0.60 0.07 72 1009.1
20260510113054 63 64 0.0 2.0 0.00 0.60 0.07 69 1009.1
20260510112119 61 70 1.0 1.0 0.00 0.60 0.07 72 1009.0
20260510111039 59 80 1.0 3.0 0.00 0.60 0.07 73 1009.0
20260510105022 58 82 3.0 9.0 0.00 0.60 0.07 76 1009.0
20260510104047 59 132 7.0 13.0 0.00 0.60 0.07 73 1009.0
20260510103130 59 156 3.0 7.0 0.00 0.60 0.07 73 1009.0
20260510102030 59 132 3.0 7.0 0.00 0.60 0.07 72 1008.9
20260510101054 59 157 5.0 9.0 0.00 0.60 0.07 72 1009.0
20260510100119 59 105 3.0 9.0 0.00 0.60 0.07 73 1008.8
20260510095039 59 133 3.0 6.0 0.00 0.60 0.07 76 1008.8
20260510094102 58 133 3.0 6.0 0.00 0.60 0.07 79 1008.8
20260510093023 58 129 3.0 6.0 0.01 0.60 0.07 79 1008.7
20260510092046 57 147 6.0 9.0 0.01 0.60 0.07 80 1008.7
20260510091111 56 101 2.0 4.0 0.02 0.60 0.07 82 1008.5
20260510090031 56 93 3.0 4.0 0.02 0.60 0.07 83 1008.4
20260510085114 55 77 1.0 3.0 0.02 0.60 0.07 85 1008.4
20260510084139 55 72 1.0 7.0 0.03 0.60 0.07 85 1008.4
20260510083038 55 70 0.0 2.0 0.02 0.59 0.06 85 1008.5
20260510082102 55 82 2.0 4.0 0.02 0.59 0.06 85 1008.4
20260510081042 54 107 3.0 4.0 0.02 0.58 0.05 85 1008.3
20260510080046 54 115 2.0 4.0 0.02 0.58 0.05 85 1008.3
20260510075130 54 112 3.0 6.0 0.04 0.58 0.05 85 1008.2
20260510074030 53 81 4.0 7.0 0.04 0.57 0.04 86 1008.2
20260510073053 53 78 3.0 7.0 0.04 0.57 0.04 87 1008.1
20260510072118 54 74 1.0 2.0 0.04 0.57 0.04 87 1008.1
20260510071059 53 109 2.0 6.0 0.03 0.56 0.03 85 1008.1
20260510070103 53 108 2.0 6.0 0.03 0.56 0.03 84 1008.1
20260510065043 53 122 1.0 7.0 0.01 0.54 0.01 83 1007.9
20260510064107 54 123 3.0 7.0 0.00 0.53 0.00 82 1007.7
20260510063111 53 99 2.0 4.0 0.00 0.53 0.00 81 1008.0
20260510062030 53 37 0.0 2.0 0.00 0.53 0.00 81 1007.9
20260510061055 54 79 2.0 8.0 0.00 0.53 0.00 80 1007.7
20260510060118 54 102 4.0 9.0 0.00 0.53 0.00 80 1007.6
20260510055038 53 129 4.0 9.0 0.00 0.53 0.00 81 1007.6
20260510054102 53 148 5.0 15.0 0.00 0.53 0.00 81 1007.4
20260510053022 53 129 4.0 10.0 0.00 0.53 0.00 81 1007.4
20260510052207 53 110 5.0 11.0 0.00 0.53 0.00 81 1007.2
20260510051110 53 134 6.0 11.0 0.00 0.53 0.00 81 1007.0
20260510050111 54 79 8.0 14.0 0.00 0.53 0.00 80 1007.1
20260510045054 54 140 10.0 16.0 0.00 0.53 0.00 80 1007.1
20260510044119 54 139 7.0 15.0 0.00 0.53 0.00 80 1007.0
20260510043058 54 131 10.0 19.0 0.00 0.53 0.00 79 1007.2
20260510042102 54 130 8.0 16.0 0.00 0.53 0.00 79 1007.1
20260510041023 54 132 9.0 18.0 0.00 0.53 0.00 79 1007.2
20260510040046 54 128 7.0 14.0 0.00 0.53 0.00 79 1007.3
20260510035130 54 135 8.0 16.0 0.00 0.53 0.00 79 1007.1
20260510034030 54 126 7.0 14.0 0.00 0.53 0.00 80 1007.3
20260510033054 54 128 6.0 14.0 0.00 0.53 0.00 82 1007.3
20260510032118 54 137 6.0 14.0 0.00 0.53 0.00 82 1007.5
20260510031039 54 125 6.0 13.0 0.00 0.53 0.00 82 1007.4
20260510025022 54 118 5.0 9.0 0.00 0.53 0.00 84 1007.5
20260510024106 54 106 5.0 9.0 0.00 0.53 0.00 84 1007.5
20260510023110 54 98 4.0 7.0 0.00 0.53 0.00 83 1007.5
20260510022030 54 99 4.0 8.0 0.00 0.53 0.00 83 1007.5
20260510021054 54 119 4.0 8.0 0.00 0.53 0.00 83 1007.6
20260510020118 54 116 6.0 11.0 0.00 0.53 0.00 82 1007.5
20260510015038 55 109 6.0 11.0 0.00 0.53 0.00 82 1007.5
20260510014102 55 164 7.0 17.0 0.00 0.53 0.00 81 1007.7
20260510013042 55 98 7.0 15.0 0.00 0.53 0.00 83 1007.6
20260510012046 54 148 7.0 15.0 0.00 0.53 0.00 85 1007.7
20260510011130 54 108 5.0 11.0 0.00 0.53 0.00 86 1007.7
20260510010030 54 114 6.0 10.0 0.00 0.53 0.00 88 1007.9
20260510005054 53 98 5.0 11.0 0.00 0.53 0.00 89 1007.8
20260510004118 53 89 4.0 8.0 0.00 0.53 0.00 90 1007.9
20260510003038 53 108 3.0 10.0 0.00 0.53 0.00 90 1008.1
20260510002103 54 120 5.0 9.0 0.00 0.53 0.00 90 1008.1
20260510001023 54 134 4.0 9.0 0.00 0.53 0.00 89 1008.1
20260510000046 54 137 6.0 10.0 0.00 0.53 0.00 88 1008.0
20260509235109 54 151 6.0 11.0 0.00 0.53 0.00 88 1007.9
20260509234030 53 147 7.0 10.0 0.00 0.53 0.00 90 1008.1
20260509233053 53 139 5.0 8.0 0.00 0.53 0.00 92 1008.2
20260509232119 54 126 5.0 7.0 0.00 0.53 0.00 92 1008.2
20260509231038 54 107 3.0 4.0 0.00 0.53 0.00 92 1008.2
20260509225022 54 128 3.0 6.0 0.00 0.53 0.00 92 1008.1
20260509224046 54 102 4.0 8.0 0.00 0.53 0.00 92 1008.1
20260509223109 54 107 3.0 7.0 0.00 0.53 0.00 93 1008.0
20260509222035 54 80 2.0 4.0 0.00 0.53 0.00 93 1008.0
20260509221054 54 96 2.0 4.0 0.00 0.53 0.00 93 1008.0
20260509220118 54 91 2.0 3.0 0.00 0.53 0.00 93 1008.0
20260509215039 54 114 3.0 6.0 0.00 0.53 0.53 93 1007.9
20260509214102 54 104 3.0 6.0 0.00 0.53 0.53 93 1007.9
20260509213022 55 96 3.0 7.0 0.00 0.53 0.53 93 1008.0
20260509212046 55 98 3.0 6.0 0.00 0.53 0.53 93 1008.2
20260509211110 55 140 4.0 7.0 0.00 0.53 0.53 93 1008.0
20260509210030 55 135 5.0 10.0 0.00 0.53 0.53 93 1007.9
20260509205054 55 144 5.0 9.0 0.00 0.53 0.53 94 1007.7
20260509204118 55 130 3.0 7.0 0.00 0.53 0.53 94 1007.6
20260509203119 55 107 3.0 7.0 0.00 0.53 0.53 94 1007.5
20260509202101 55 111 3.0 6.0 0.01 0.53 0.53 94 1007.3
20260509201042 55 87 3.0 4.0 0.02 0.53 0.53 94 1007.3
20260509200046 55 67 1.0 3.0 0.02 0.53 0.53 94 1007.2
20260509195110 56 69 1.0 1.0 0.04 0.53 0.53 94 1007.3
20260509194030 55 0.0 1.0 0.05 0.53 0.53 94 1007.1
20260509193054 56 0.0 0.0 0.06 0.53 0.53 94 1007.0
20260509192118 55 0.0 1.0 0.08 0.52 0.52 94 1006.9
20260509191058 55 75 2.0 2.0 0.11 0.51 0.51 94 1007.0
20260509185022 55 72 2.0 3.0 0.29 0.49 0.49 94 1006.8
20260509184045 56 71 1.0 3.0 0.29 0.48 0.48 94 1006.6
20260509183130 56 113 2.0 4.0 0.28 0.47 0.47 94 1006.6
20260509182030 56 115 3.0 6.0 0.28 0.44 0.44 93 1006.6
20260509181055 56 145 3.0 7.0 0.33 0.40 0.40 93 1006.3
20260509180118 56 158 7.0 14.0 0.30 0.34 0.34 93 1006.3
20260509175038 57 143 8.0 15.0 0.17 0.20 0.20 88 1006.1
20260509174103 57 50 1.0 2.0 0.16 0.19 0.19 88 1005.5
20260509173043 58 27 1.0 3.0 0.16 0.19 0.19 87 1005.3
20260509172106 58 342 1.0 4.0 0.13 0.16 0.16 85 1005.3
20260509171110 60 342 3.0 6.0 0.04 0.07 0.07 80 1005.4
20260509170030 61 273 4.0 8.0 0.01 0.04 0.04 72 1005.3
20260509165054 62 258 5.0 9.0 0.00 0.03 0.03 75 1005.4
20260509164139 63 8 3.0 6.0 0.00 0.03 0.03 73 1005.0
20260509163038 64 55 2.0 4.0 0.00 0.03 0.03 70 1005.0
20260509162103 64 19 1.0 6.0 0.00 0.03 0.03 71 1004.9
20260509161023 65 0 4.0 8.0 0.00 0.03 0.03 71 1004.9
20260509160128 69 14 2.0 6.0 0.00 0.03 0.03 62 1004.9
20260509155111 72 54 0.0 1.0 0.00 0.03 0.03 55 1004.9
20260509154030 69 64 2.0 3.0 0.00 0.03 0.03 60 1005.0
20260509153054 68 102 1.0 6.0 0.00 0.03 0.03 65 1004.9
20260509152118 65 102 1.0 2.0 0.02 0.03 0.03 69 1004.9
20260509151038 64 103 3.0 7.0 0.02 0.03 0.03 69 1005.1
20260509150103 62 129 3.0 8.0 0.02 0.03 0.03 75 1005.0
20260509145022 60 87 3.0 8.0 0.02 0.03 0.03 77 1005.2
20260509144047 61 102 5.0 10.0 0.03 0.03 0.03 77 1005.4